Location: Champignolles
(47.0543°N, 4.5663°E)
Time: 15:24:24
(UTC+00:00)

Cosmos 2369 Rocket - Pass Details

Date: 30 November 2020
Orbit: 829 x 852 km, 71.0° (Epoch: 27 January)

Event Time Altitude Azimuth Distance (km) Brightness Sun altitude
Rises 18:05:59 0° 330° (NNW) 3,423 5.6 -21.7°
Reaches altitude 10° 18:08:29 10° 327° (NNW) 2,481 4.9 -22.1°
Maximum altitude 18:14:05 61° 249° (WSW) 956 2.7 -23.0°
Drops below altitude 10° 18:19:36 10° 170° (S) 2,450 4.6 -23.9°
Sets 18:22:03 0° 167° (SSE) 3,376 5.3 -24.4°
